Location: Burgberg
(50.1428°N, 11.0671°E)
Time: 00:35:37
(UTC+00:00)

STARLINK-45 - Pass Details

Date: 26 January 2020
Orbit: 528 x 531 km, 53.0° (Epoch: 28 February)

Event Time Altitude Azimuth Distance (km) Brightness Sun altitude
Exits shadow 03:41:52 23° 81° (E) 1,161 5.9 -31.3°
Drops below altitude 10° 03:43:32 10° 73° (ENE) 1,777 7.1 -31.0°
Enters shadow 04:42:12 -65° 252° (WSW) 12,152 10.4 -21.6°
Maximum altitude 05:18:43 63° 349° (N) 594 3.6 -15.8°
